Regional Weather Roundup
Issued by NWS

Home | Current Version | Previous Version | Graphics & Text | Print | Product List | Glossary On
Versions: 1 2 3 4 5 6 7 8 9 10 11 12 13 14 15 16 17 18 19 20 21 22 23 24 25 26 27 28 29 30 31 32 33 34 35 36 37 38 39 40 41 42 43 44 45 46 47 48 49 50
000
ASUS43 KLMK 300302
RWRKY
KENTUCKY REGIONAL WEATHER ROUNDUP
NATIONAL WEATHER SERVICE LOUISVILLE KY
1100 PM EDT SAT APR 29 2017

NOTE "FAIR" INDICATES FEW OR NO CLOUDS BELOW 12,000 FEET
WITH NO SIGNIFICANT WEATHER AND/OR OBSTRUCTIONS TO VISIBILITY.

KYZ001>023-026-027-061>063-070>075-300400-
WESTERN AND SOUTH CENTRAL KENTUCKY

CITY           SKY/WX    TMP DP  RH WIND       PRES   REMARKS
PADUCAH        CLOUDY    70  60  70 NE10      29.89R
HENDERSON        N/A    N/A N/A N/A MISG        N/A
OWENSBORO      CLEAR     76  66  71 S9        29.91R
HOPKINSVILLE   CLEAR     78  65  64 S6        29.94R
BOWLING GREEN  PTCLDY    80  65  59 S8        29.95S
GLASGOW        NOT AVBL
$$

KYZ024-025-028>034-038-045-046-053-300400-
NORTH CENTRAL KENTUCKY

CITY           SKY/WX    TMP DP  RH WIND       PRES   REMARKS
LOUISVILLE/SDF MOCLDY    76  68  76 SE6       29.93R
LOUISVILLE/LOU CLEAR     78  69  73 CALM      29.94R
FORT KNOX      CLEAR     77  65  65 S9        29.93R
$$

KYZ035>037-039>044-047>052-055>060-089>105-300400-
NORTHEAST KENTUCKY

CITY           SKY/WX    TMP DP  RH WIND       PRES   REMARKS
LEXINGTON      CLEAR     75  64  68 S9        29.99S
COVINGTON      CLOUDY    73  67  81 E12       29.96F
FRANKFORT      CLEAR     74  65  73 S8        29.95S
$$

KYZ054-064>069-076>088-106>120-300400-
SOUTHEAST KENTUCKY

CITY           SKY/WX    TMP DP  RH WIND       PRES   REMARKS
JACKSON        CLEAR     77  63  61 SE3       30.05R
LONDON         PTCLDY    74  61  63 S5        30.04R
SOMERSET       PTCLDY    73  59  60 CALM      30.03R
MIDDLESBORO    MOCLDY    73  64  74 SW3       30.06F
MONTICELLO     CLOUDY    80  65  59 VRB7      30.02F
$$





USA.gov is the U.S. government's official web portal to all federal, state and local government web resources and services.